| time (UTC) | temp C | wind direction | speed KPH | gust KPH | rain 1hr cm | rain 24hr cm | rain mn cm | humidity % | barometer mb |
| 20260506153051 | 21 | 268 | 6.4 | 14.5 | 0.00 | 0.00 | 0.00 | 68 | 1013.7 |
| 20260506151605 | 21 | 215 | 4.8 | 12.9 | 0.00 | 0.00 | 0.00 | 68 | 1013.9 |
| 20260506150051 | 20 | 227 | 3.2 | 16.1 | 0.00 | 0.00 | 0.00 | 70 | 1014.0 |
| 20260506144552 | 20 | 105 | 6.4 | 17.7 | 0.00 | 0.00 | 0.00 | 71 | 1014.1 |
| 20260506143056 | 20 | 217 | 1.6 | 14.5 | 0.00 | 0.00 | 0.00 | 71 | 1014.1 |
| 20260506141550 | 20 | 225 | 4.8 | 12.9 | 0.00 | 0.00 | 0.00 | 71 | 1014.1 |
| 20260506140106 | 20 | 159 | 3.2 | 9.7 | 0.00 | 0.00 | 0.00 | 71 | 1013.7 |
| 20260506134545 | 20 | 236 | 3.2 | 12.9 | 0.00 | 0.00 | 0.00 | 71 | 1013.8 |
| 20260506133048 | 18 | 279 | 3.2 | 11.3 | 0.00 | 0.00 | 0.00 | 73 | 1013.7 |
| 20260506131552 | 18 | 234 | 3.2 | 11.3 | 0.00 | 0.00 | 0.00 | 74 | 1013.7 |
| 20260506130049 | 18 | 130 | 3.2 | 17.7 | 0.00 | 0.00 | 0.00 | 74 | 1013.3 |
| 20260506124540 | 17 | 161 | 3.2 | 11.3 | 0.00 | 0.00 | 0.00 | 74 | 1014.0 |
| 20260506123039 | 17 | 264 | 3.2 | 11.3 | 0.00 | 0.00 | 0.00 | 74 | 1014.2 |
| 20260506121547 | 17 | 202 | 6.4 | 14.5 | 0.00 | 0.00 | 0.00 | 74 | 1014.6 |
| 20260506120044 | 17 | 279 | 3.2 | 12.9 | 0.00 | 0.00 | 0.00 | 73 | 1014.5 |
| 20260506114550 | 17 | 141 | 1.6 | 4.8 | 0.00 | 0.00 | 0.00 | 74 | 1014.1 |
| 20260506113047 | 16 | 230 | 1.6 | 9.7 | 0.00 | 0.00 | 0.00 | 74 | 1013.9 |
| 20260506111550 | 16 | 209 | 1.6 | 8.0 | 0.00 | 0.00 | 0.00 | 75 | 1013.6 |
| 20260506110056 | 16 | 237 | 1.6 | 8.0 | 0.00 | 0.00 | 0.00 | 75 | 1013.4 |
| 20260506104558 | 16 | 223 | 0.0 | 14.5 | 0.00 | 0.00 | 0.00 | 75 | 1013.3 |
| 20260506103048 | 16 | 196 | 3.2 | 9.7 | 0.00 | 0.00 | 0.00 | 75 | 1012.9 |
| 20260506101556 | 16 | 209 | 1.6 | 4.8 | 0.00 | 0.00 | 0.00 | 75 | 1013.1 |
| 20260506100045 | 16 | 148 | 1.6 | 8.0 | 0.00 | 0.00 | 0.00 | 75 | 1013.0 |
| 20260506094554 | 16 | 277 | 1.6 | 14.5 | 0.00 | 0.00 | 0.00 | 75 | 1013.1 |
| 20260506093050 | 16 | 226 | 1.6 | 12.9 | 0.00 | 0.00 | 0.00 | 74 | 1013.2 |
| 20260506091544 | 16 | 178 | 3.2 | 12.9 | 0.00 | 0.00 | 0.00 | 74 | 1013.3 |
| 20260506090049 | 16 | 294 | 1.6 | 6.4 | 0.00 | 0.00 | 0.00 | 75 | 1013.6 |
| 20260506084547 | 16 | 0 | 1.6 | 4.8 | 0.00 | 0.00 | 0.00 | 74 | 1013.8 |
| 20260506083041 | 16 | 137 | 1.6 | 9.7 | 0.00 | 0.00 | 0.00 | 74 | 1013.9 |
| 20260506081549 | 17 | 210 | 0.0 | 9.7 | 0.00 | 0.00 | 0.00 | 73 | 1013.8 |
| 20260506073050 | 17 | 132 | 1.6 | 9.7 | 0.00 | 0.00 | 0.00 | 72 | 1014.0 |
| 20260506071557 | 17 | 270 | 3.2 | 11.3 | 0.00 | 0.00 | 0.00 | 72 | 1013.7 |
| 20260506061543 | 17 | 236 | 3.2 | 16.1 | 0.00 | 0.00 | 0.00 | 71 | 1014.1 |
| 20260506044541 | 18 | 113 | 0.0 | 6.4 | 0.00 | 0.00 | 0.00 | 65 | 1014.5 |
| 20260506043040 | 18 | 141 | 1.6 | 9.7 | 0.00 | 0.00 | 0.00 | 65 | 1014.6 |
| 20260506041557 | 18 | 180 | 1.6 | 8.0 | 0.00 | 0.00 | 0.00 | 64 | 1014.4 |
| 20260506040039 | 19 | 158 | 0.0 | 9.7 | 0.00 | 0.00 | 0.00 | 63 | 1014.2 |
| 20260506034545 | 19 | 283 | 3.2 | 11.3 | 0.00 | 0.00 | 0.00 | 61 | 1014.3 |
| 20260506033042 | 20 | 242 | 3.2 | 12.9 | 0.00 | 0.00 | 0.00 | 60 | 1014.1 |
| 20260506031542 | 20 | 253 | 3.2 | 12.9 | 0.00 | 0.00 | 0.00 | 57 | 1014.1 |
| 20260506030042 | 20 | 247 | 1.6 | 12.9 | 0.00 | 0.00 | 0.00 | 55 | 1014.0 |
| 20260506024542 | 19 | 184 | 1.6 | 8.0 | 0.00 | 0.00 | 0.00 | 56 | 1014.0 |
| 20260506023046 | 18 | 0 | 0.0 | 4.8 | 0.00 | 0.00 | 0.00 | 58 | 1014.3 |
| 20260506021545 | 18 | 0 | 0.0 | 6.4 | 0.00 | 0.00 | 0.00 | 59 | 1014.3 |
| 20260506020049 | 17 | 0 | 0.0 | 0.0 | 0.00 | 0.00 | 0.00 | 60 | 1014.2 |
| 20260506014549 | 18 | 0 | 0.0 | 0.0 | 0.00 | 0.00 | 0.00 | 56 | 1014.2 |
| 20260506013047 | 19 | 0 | 0.0 | 0.0 | 0.00 | 0.00 | 0.00 | 51 | 1014.0 |
| 20260506011545 | 20 | 0 | 0.0 | 0.0 | 0.00 | 0.00 | 0.00 | 49 | 1013.9 |
| 20260506010048 | 21 | 0 | 0.0 | 0.0 | 0.00 | 0.00 | 0.00 | 45 | 1013.8 |
| 20260506004545 | 22 | 188 | 0.0 | 9.7 | 0.00 | 0.00 | 0.00 | 43 | 1013.5 |
| 20260506003042 | 22 | 0 | 0.0 | 6.4 | 0.00 | 0.00 | 0.00 | 42 | 1013.4 |
| 20260506001559 | 23 | 148 | 1.6 | 9.7 | 0.00 | 0.00 | 0.00 | 41 | 1013.3 |
| 20260506000048 | 23 | 155 | 3.2 | 12.9 | 0.00 | 0.00 | 0.00 | 40 | 1013.2 |
| 20260505234553 | 23 | 126 | 1.6 | 9.7 | 0.00 | 0.00 | 0.00 | 40 | 1013.1 |
| 20260505233054 | 24 | 211 | 1.6 | 6.4 | 0.00 | 0.00 | 0.00 | 39 | 1013.1 |
| 20260505231551 | 25 | 172 | 4.8 | 19.3 | 0.00 | 0.00 | 0.00 | 37 | 1013.2 |
| 20260505230042 | 25 | 164 | 8.0 | 22.5 | 0.00 | 0.00 | 0.00 | 36 | 1013.1 |
| 20260505224542 | 25 | 74 | 3.2 | 12.9 | 0.00 | 0.00 | 0.00 | 36 | 1013.2 |
| 20260505223054 | 26 | 119 | 6.4 | 19.3 | 0.00 | 0.00 | 0.00 | 36 | 1013.2 |
| 20260505221544 | 26 | 155 | 4.8 | 14.5 | 0.00 | 0.00 | 0.00 | 36 | 1013.4 |
| 20260505220047 | 26 | 194 | 3.2 | 17.7 | 0.00 | 0.00 | 0.00 | 36 | 1013.4 |
| 20260505214601 | 26 | 206 | 4.8 | 16.1 | 0.00 | 0.00 | 0.00 | 35 | 1013.5 |
| 20260505213053 | 26 | 242 | 8.0 | 25.7 | 0.00 | 0.00 | 0.00 | 36 | 1013.7 |
| 20260505211548 | 26 | 159 | 9.7 | 20.9 | 0.00 | 0.00 | 0.00 | 35 | 1013.5 |
| 20260505210051 | 26 | 223 | 4.8 | 16.1 | 0.00 | 0.00 | 0.00 | 36 | 1013.5 |
| 20260505204549 | 26 | 190 | 4.8 | 22.5 | 0.00 | 0.00 | 0.00 | 37 | 1013.5 |
| 20260505203047 | 26 | 229 | 4.8 | 19.3 | 0.00 | 0.00 | 0.00 | 36 | 1013.7 |
| 20260505201557 | 26 | 148 | 9.7 | 24.1 | 0.00 | 0.00 | 0.00 | 35 | 1014.1 |
| 20260505200040 | 26 | 247 | 6.4 | 16.1 | 0.00 | 0.00 | 0.00 | 35 | 1014.2 |
| 20260505194541 | 26 | 153 | 8.0 | 19.3 | 0.00 | 0.00 | 0.00 | 35 | 1014.2 |
| 20260505193045 | 26 | 95 | 4.8 | 14.5 | 0.00 | 0.00 | 0.00 | 37 | 1014.5 |
| 20260505191551 | 26 | 248 | 4.8 | 14.5 | 0.00 | 0.00 | 0.00 | 37 | 1014.9 |
| 20260505190048 | 26 | 238 | 8.0 | 16.1 | 0.00 | 0.00 | 0.00 | 38 | 1015.1 |
| 20260505184600 | 26 | 252 | 4.8 | 20.9 | 0.00 | 0.00 | 0.00 | 36 | 1015.3 |
| 20260505183048 | 26 | 233 | 3.2 | 16.1 | 0.00 | 0.00 | 0.00 | 35 | 1015.7 |
| 20260505181539 | 26 | 88 | 4.8 | 16.1 | 0.00 | 0.00 | 0.00 | 36 | 1015.8 |
| 20260505180049 | 25 | 227 | 9.7 | 19.3 | 0.00 | 0.00 | 0.00 | 37 | 1015.8 |
| 20260505174543 | 25 | 284 | 4.8 | 19.3 | 0.00 | 0.00 | 0.00 | 39 | 1015.8 |
| 20260505173044 | 25 | 242 | 3.2 | 20.9 | 0.00 | 0.00 | 0.00 | 39 | 1015.9 |
| 20260505171550 | 25 | 209 | 4.8 | 17.7 | 0.00 | 0.00 | 0.00 | 39 | 1015.9 |
| 20260505170051 | 25 | 121 | 6.4 | 16.1 | 0.00 | 0.00 | 0.00 | 36 | 1016.3 |
| 20260505164546 | 24 | 139 | 3.2 | 12.9 | 0.00 | 0.00 | 0.00 | 41 | 1016.3 |
| 20260505163042 | 23 | 210 | 6.4 | 16.1 | 0.00 | 0.00 | 0.00 | 44 | 1016.5 |
| 20260505161552 | 23 | 304 | 4.8 | 16.1 | 0.00 | 0.00 | 0.00 | 47 | 1016.5 |